Tracking 18945 objects as of 20-Jan-2018
HD Live streaming from Space Station
objects crossing your sky now

FENGYUN 1C DEB

Track FENGYUN 1C DEB now!
10-day predictions


NORAD ID: 32406
Int'l Code: 1999-025CZS
Perigee: 400.3 km
Apogee: 589.2 km
Inclination: 98.4 °
Period: 94.4 minutes
Semi major axis: 6865 km
RCS: 0.0105 m2 (small)
Launch date: May 10, 1999
Source: People's Republic of China (PRC)
Launch site: Taiyaun Space Center, China (TSC)

Note: This is SATELLITE DEBRIS
aabbcc
Your satellite tracking list
Your tracking list is empty




NASA's NSSDC Master Catalog

Two Line Element Set (TLE):
1 32406U 99025CZS 18018.88323884  .00005937  00000-0  17798-3 0  9991
2 32406  98.3588 170.4349 0137531  85.6631 276.0305 15.26060740568200
Source of the keplerian elements: AFSPC